Flag for U.S.A. Weather past 2 weeks in Wilmington, North Carolina, U.S.A.

Now
83 °F

Sunny.


Feels Like: 88 °F
Forecast: 75 / 88 °F
Wind: 10 mph from Southwest

Location: New Hanover International Airport

Current Time: Jul 4, 2015 at 8:21:11 PM

Latest Report: Jul 4, 2015 at 7:53 PM


Visibility: 10 mi

Pressure: 30.02 "Hg

Humidity: 68%

Dew point: 71 °F

Location of WilmingtonLocation

Historic Weather in Wilmington — Graph

°F

Wilmington temperature yesterday

Maximum temperature yesterday: 85 °F (at 2:53 PM)
Minimum temperature yesterday: 72 °F (at 1:53 AM)
Average temperature yesterday: 76 °F

Past Weeks' High & Low Weather Summary

 TemperatureHumidityPressure
High94 °F (Jun 21, 1:53 PM)94% (Jun 19, 11:53 PM)30.09 "Hg (Jun 19, 11:53 PM)
Low72 °F (Jun 20, 4:53 AM)43% (Jul 4, 2:53 PM)29.79 "Hg (Jun 28, 2:53 AM)
Average82 °F75%29.97 "Hg
* Reported Jun 19 6:53 PM — Jul 4 6:53 PM, Wilmington, Weather by CustomWeather, © 2015

Note: Actual official high and low records may vary slightly from our data, if they occured in-between our weather recording intervals... More about our weather records

Advertising

Wilmington weather history for previous 24 hours

 ConditionsComfort  
Time TempWeatherWind HumidityBarometerVisibility
6:53 PM
Sat, Jul 4
86 °FSunny.13 mph61%30.01 "Hg10 mi
5:53 PM88 °FSunny.12 mph59%30.01 "Hg10 mi
4:53 PM91 °FPassing clouds.13 mph52%30.00 "Hg10 mi
3:53 PM92 °FPassing clouds.18 mph46%30.01 "Hg10 mi
2:53 PM92 °FSunny.17 mph43%30.02 "Hg10 mi
1:53 PM91 °FSunny.16 mph49%30.03 "Hg10 mi
12:53 PM90 °FSunny.17 mph50%30.03 "Hg10 mi
11:53 AM87 °FSunny.15 mph53%30.03 "Hg10 mi
10:53 AM86 °FSunny.16 mph57%30.02 "Hg10 mi
9:53 AM83 °FSunny.23 mph59%30.02 "Hg10 mi
8:53 AM81 °FSunny.15 mph62%30.02 "Hg10 mi
7:53 AM79 °FSunny.17 mph69%29.99 "Hg10 mi
6:53 AM78 °FClear.12 mph76%29.99 "Hg10 mi
5:53 AM78 °FClear.14 mph79%29.97 "Hg10 mi
4:53 AM78 °FClear.10 mph82%29.95 "Hg10 mi
3:53 AM77 °FClear.9 mph85%29.95 "Hg10 mi
2:53 AM75 °FClear.6 mph85%29.96 "Hg10 mi
1:53 AM76 °FPassing clouds.10 mph80%29.96 "Hg10 mi
12:53 AM76 °FClear.12 mph80%29.96 "Hg10 mi
11:53 PM
Fri, Jul 3
76 °FClear.13 mph80%29.96 "Hg10 mi
10:53 PM75 °FClear.12 mph82%29.95 "Hg10 mi
9:53 PM75 °FClear.10 mph88%29.92 "Hg10 mi
8:53 PM76 °FSunny.13 mph88%29.91 "Hg10 mi
Weather by CustomWeather, © 2015

See weather overviewHow to use our weather pages